TimePST,TemperatureF,Dew PointF,Humidity,Sea Level PressureIn,VisibilityMPH,Wind Direction,Wind SpeedMPH,Gust SpeedMPH,PrecipitationIn,Events,Conditions,WindDirDegrees,DateUTC
12:52 AM,43.0,37.9,82,30.13,10.0,Calm,Calm,-,N/A,,Clear,0,2012-12-17 08:52:00
1:52 AM,42.1,37.9,85,30.13,10.0,Calm,Calm,-,N/A,,Clear,0,2012-12-17 09:52:00
2:52 AM,42.1,37.9,85,30.13,10.0,Calm,Calm,-,N/A,,Clear,0,2012-12-17 10:52:00
3:52 AM,42.1,39.0,89,30.12,10.0,Calm,Calm,-,N/A,,Clear,0,2012-12-17 11:52:00
4:52 AM,39.9,37.0,89,30.12,10.0,Calm,Calm,-,N/A,,Clear,0,2012-12-17 12:52:00
5:52 AM,39.0,35.1,86,30.12,10.0,Calm,Calm,-,N/A,,Clear,0,2012-12-17 13:52:00
6:52 AM,39.9,37.0,89,30.12,9.0,Calm,Calm,-,N/A,,Clear,0,2012-12-17 14:52:00
7:52 AM,46.0,41.0,83,30.14,10.0,Calm,Calm,-,N/A,,Clear,0,2012-12-17 15:52:00
8:52 AM,54.0,44.1,69,30.14,10.0,Calm,Calm,-,N/A,,Clear,0,2012-12-17 16:52:00
9:52 AM,60.1,44.1,55,30.14,10.0,Variable,3.5,-,N/A,,Clear,0,2012-12-17 17:52:00
10:52 AM,62.1,46.0,56,30.13,10.0,South,5.8,-,N/A,,Clear,170,2012-12-17 18:52:00
11:52 AM,63.0,46.0,54,30.08,10.0,Calm,Calm,-,N/A,,Clear,0,2012-12-17 19:52:00
12:52 PM,64.0,46.0,52,30.03,10.0,Calm,Calm,-,N/A,,Clear,0,2012-12-17 20:52:00
1:52 PM,64.9,46.0,50,30.01,10.0,South,6.9,-,N/A,,Clear,180,2012-12-17 21:52:00
4:52 PM,55.9,46.0,69,29.99,10.0,Calm,Calm,-,N/A,,Clear,0,2012-12-18 00:52:00
5:52 PM,52.0,46.0,80,29.99,10.0,SSW,4.6,-,N/A,,Clear,200,2012-12-18 01:52:00
6:52 PM,50.0,45.0,83,29.99,10.0,Calm,Calm,-,N/A,,Clear,0,2012-12-18 02:52:00
7:52 PM,48.0,42.1,80,29.98,10.0,Calm,Calm,-,N/A,,Clear,0,2012-12-18 03:52:00
8:52 PM,46.0,41.0,83,29.98,9.0,Calm,Calm,-,N/A,,Clear,0,2012-12-18 04:52:00
9:52 PM,45.0,42.1,90,29.97,8.0,Calm,Calm,-,N/A,,Clear,0,2012-12-18 05:52:00
10:52 PM,46.0,44.1,93,29.96,7.0,NW,3.5,-,N/A,,Clear,320,2012-12-18 06:52:00
11:52 PM,44.1,42.1,93,29.95,6.0,NW,3.5,-,N/A,,Clear,320,2012-12-18 07:52:00